Location: Strada George Coșbuc
(47.6577°N, 23.5639°E)
Time: 15:16:49
(UTC+02:00)

ISS - Pass Details

Date: 15 July 2017
Orbit: 412 x 421 km, 51.6° (Epoch: 15 November)

Event Time Altitude Azimuth Distance (km) Brightness Sun altitude
Rises 01:46:06 0° 280° (W) 2,358 0.1 -20.7°
Reaches altitude 10° 01:48:15 10° 288° (WNW) 1,502 -0.8 -20.7°
Maximum altitude 01:51:28 40° 0° (N) 641 -2.3 -20.7°
Drops below altitude 10° 01:54:44 10° 72° (ENE) 1,531 -0.6 -20.6°
Sets 01:56:57 0° 80° (E) 2,411 0.3 -20.6°
